RYR81E EGBB-EIDW

Flight info

Callsign RYR81E
Flight time N/A
Altitude 24000
Route LUVUM DCT NANTI Y53 WAL/N0427F280 L10 PENIL UL28 LELDO M145 BAGSO BAGSO4L
Aircraft B738/M-SDE2E3FGHIRWXY/LB1

Departure

Time 2026-04-28 18:59
Airport Birmingham Airport (EGBB)

Arrival

Time N/A
Airport Dublin Airport (EIDW)
Time Latitude Longitude Altitude Speed Heading
2026-04-28 18:32 52.45057 -1.73250 333 ft 0 kts 329°
2026-04-28 18:34 52.45055 -1.73249 333 ft 2 kts 329°
2026-04-28 18:34 52.45041 -1.73234 332 ft 2 kts 323°
2026-04-28 18:34 52.45030 -1.73215 329 ft 2 kts 282°
2026-04-28 18:34 52.45032 -1.73192 331 ft 1 kts 238°
2026-04-28 18:35 52.45034 -1.73187 328 ft 0 kts 237°
2026-04-28 18:47 52.45057 -1.73250 333 ft 0 kts 329°
2026-04-28 18:54 52.45050 -1.73244 333 ft 2 kts 328°
2026-04-28 18:54 52.45036 -1.73230 333 ft 2 kts 324°
2026-04-28 18:54 52.45027 -1.73209 333 ft 2 kts 249°
2026-04-28 18:55 52.45030 -1.73198 333 ft 0 kts 236°
2026-04-28 18:57 52.45019 -1.73225 349 ft 5 kts 237°
2026-04-28 18:57 52.44987 -1.73301 331 ft 11 kts 235°
2026-04-28 18:58 52.44937 -1.73418 329 ft 16 kts 236°
2026-04-28 18:58 52.44881 -1.73592 329 ft 18 kts 232°
2026-04-28 18:58 52.44781 -1.73698 329 ft 18 kts 195°
2026-04-28 18:58 52.44694 -1.73828 330 ft 17 kts 232°
2026-04-28 18:59 52.44677 -1.74002 331 ft 16 kts 301°
2026-04-28 18:59 52.44865 -1.74214 327 ft 74 kts 329°
2026-04-28 18:59 52.45596 -1.74790 360 ft 153 kts 333°
2026-04-28 18:59 52.46465 -1.76022 1234 ft 175 kts 322°
2026-04-28 19:00 52.47515 -1.77558 1784 ft 229 kts 329°
2026-04-28 19:00 52.48871 -1.79075 2263 ft 228 kts 334°
2026-04-28 19:00 52.50245 -1.79892 2409 ft 202 kts
2026-04-28 19:00 52.51704 -1.79479 1354 ft 229 kts 18°
2026-04-28 19:01 52.53289 -1.78876 1102 ft 228 kts 13°
2026-04-28 19:01 52.54785 -1.78409 1131 ft 214 kts 13°
2026-04-28 19:01 52.56223 -1.77989 1177 ft 212 kts 12°
2026-04-28 19:01 52.57737 -1.77598 1221 ft 230 kts 12°
2026-04-28 19:02 52.59340 -1.77232 1635 ft 225 kts 12°
2026-04-28 19:02 52.60930 -1.76897 2346 ft 235 kts 11°
2026-04-28 19:02 52.62577 -1.76539 2996 ft 239 kts 11°
2026-04-28 19:02 52.64236 -1.76194 3610 ft 245 kts 12°
2026-04-28 19:03 52.65876 -1.75849 4322 ft 249 kts 10°
2026-04-28 19:03 52.67547 -1.75517 5350 ft 246 kts 12°
2026-04-28 19:03 52.69274 -1.75156 6327 ft 247 kts 13°
2026-04-28 19:03 52.71009 -1.75211 7295 ft 255 kts 347°
2026-04-28 19:04 52.72438 -1.76608 8205 ft 263 kts 322°
2026-04-28 19:04 52.73724 -1.78821 9012 ft 273 kts 315°
2026-04-28 19:04 52.74980 -1.81238 9823 ft 279 kts 314°
2026-04-28 19:04 52.76242 -1.83721 10587 ft 285 kts 314°
2026-04-28 19:05 52.77533 -1.86263 11350 ft 290 kts 314°
2026-04-28 19:05 52.78851 -1.88841 12110 ft 296 kts 315°
2026-04-28 19:05 52.80182 -1.91434 12884 ft 300 kts 315°
2026-04-28 19:05 52.81548 -1.94083 13681 ft 305 kts 315°
2026-04-28 19:06 52.82943 -1.96782 14447 ft 309 kts 316°
2026-04-28 19:06 52.83877 -1.98588 14946 ft 311 kts 316°
2026-04-28 19:06 52.85757 -2.02220 15937 ft 314 kts 317°
2026-04-28 19:06 52.87191 -2.04993 16717 ft 316 kts 317°
2026-04-28 19:07 52.88633 -2.07780 17489 ft 318 kts 317°
2026-04-28 19:07 52.90075 -2.10571 18286 ft 319 kts 318°
2026-04-28 19:07 52.91518 -2.13367 19041 ft 319 kts 318°
2026-04-28 19:07 52.92889 -2.16026 19710 ft 319 kts 319°
2026-04-28 19:08 52.94328 -2.18819 20432 ft 318 kts 319°
2026-04-28 19:08 52.95612 -2.21315 21082 ft 317 kts 319°
2026-04-28 19:08 52.97100 -2.24210 21877 ft 314 kts 320°
2026-04-28 19:08 52.98496 -2.26931 22644 ft 311 kts 320°
2026-04-28 19:09 52.99895 -2.29656 23301 ft 310 kts 320°
2026-04-28 19:09 53.01297 -2.32389 23978 ft 309 kts 320°
2026-04-28 19:09 53.02671 -2.35071 24538 ft 307 kts 320°
2026-04-28 19:09 53.04034 -2.37740 25098 ft 301 kts 320°
2026-04-28 19:10 53.05367 -2.40354 25663 ft 294 kts 321°
2026-04-28 19:10 53.06683 -2.42937 26250 ft 286 kts 321°
2026-04-28 19:10 53.07851 -2.45226 26665 ft 284 kts 322°
2026-04-28 19:10 53.09192 -2.47827 26746 ft 300 kts 321°
2026-04-28 19:11 53.10580 -2.50531 26884 ft 314 kts 321°
2026-04-28 19:11 53.11997 -2.53308 27029 ft 328 kts 320°
2026-04-28 19:11 53.13509 -2.56281 27159 ft 341 kts 319°
2026-04-28 19:11 53.15010 -2.59387 27298 ft 358 kts 316°
2026-04-28 19:12 53.16555 -2.62736 27424 ft 373 kts 316°
2026-04-28 19:12 53.18153 -2.66277 27555 ft 387 kts 315°
2026-04-28 19:12 53.19659 -2.69648 27658 ft 400 kts 314°
2026-04-28 19:12 53.21364 -2.73472 27775 ft 413 kts 314°
2026-04-28 19:13 53.23084 -2.77315 27869 ft 425 kts 314°
2026-04-28 19:13 53.24882 -2.81327 27977 ft 437 kts 314°
2026-04-28 19:13 53.26738 -2.85468 28069 ft 448 kts 313°
2026-04-28 19:13 53.28633 -2.89695 28163 ft 459 kts 313°
2026-04-28 19:14 53.32493 -2.98324 28369 ft 473 kts 313°
2026-04-28 19:14 53.36491 -3.07299 28396 ft 486 kts 313°
2026-04-28 19:15 53.40585 -3.16555 28398 ft 498 kts 312°
2026-04-28 19:15 53.43942 -3.24435 28406 ft 504 kts 311°
2026-04-28 19:16 53.48678 -3.35692 28407 ft 507 kts 311°
2026-04-28 19:16 53.52759 -3.45372 28413 ft 506 kts 311°
2026-04-28 19:17 53.56841 -3.55054 28416 ft 506 kts 311°
2026-04-28 19:17 53.60889 -3.64764 28422 ft 508 kts 309°
2026-04-28 19:18 53.63926 -3.75487 28427 ft 518 kts 296°
2026-04-28 19:18 53.65200 -3.81193 28222 ft 521 kts 295°
2026-04-28 19:18 53.66480 -3.86831 27954 ft 519 kts 296°
2026-04-28 19:19 53.67811 -3.92504 27681 ft 517 kts 296°
2026-04-28 19:19 53.69161 -3.98132 27408 ft 515 kts 297°
2026-04-28 19:19 53.70534 -4.03787 27152 ft 516 kts 296°
2026-04-28 19:19 53.71605 -4.09540 26891 ft 522 kts 287°
2026-04-28 19:20 53.72147 -4.15610 26634 ft 527 kts 277°
2026-04-28 19:20 53.72319 -4.21863 26401 ft 528 kts 275°
2026-04-28 19:20 53.72457 -4.28026 26152 ft 528 kts 275°
2026-04-28 19:20 53.72626 -4.34109 25908 ft 527 kts 276°
2026-04-28 19:21 53.72838 -4.40321 25654 ft 523 kts 276°
2026-04-28 19:21 53.73056 -4.46348 25415 ft 521 kts 277°
2026-04-28 19:21 53.73275 -4.52483 25177 ft 520 kts 276°
2026-04-28 19:21 53.73485 -4.58624 24935 ft 519 kts 276°
2026-04-28 19:22 53.73687 -4.64640 24706 ft 517 kts 276°
2026-04-28 19:22 53.73824 -4.68776 24550 ft 514 kts 276°
2026-04-28 19:22 53.74089 -4.76772 24451 ft 513 kts 276°
2026-04-28 19:22 53.74282 -4.82751 24431 ft 513 kts 276°
2026-04-28 19:23 53.74477 -4.88735 24432 ft 513 kts 276°
2026-04-28 19:23 53.74678 -4.94796 24431 ft 514 kts 276°
2026-04-28 19:23 53.74877 -5.00792 24432 ft 514 kts 276°
2026-04-28 19:23 53.75071 -5.06895 24433 ft 514 kts 275°
2026-04-28 19:24 53.74992 -5.12820 24426 ft 518 kts 266°
2026-04-28 19:24 53.74403 -5.18871 24436 ft 520 kts 258°
2026-04-28 19:24 53.73296 -5.24723 24420 ft 521 kts 251°
2026-04-28 19:24 53.72043 -5.30494 24432 ft 521 kts 250°
2026-04-28 19:25 53.70829 -5.36138 24432 ft 522 kts 251°
2026-04-28 19:25 53.69632 -5.41905 24440 ft 522 kts 251°
2026-04-28 19:25 53.68463 -5.47648 24404 ft 503 kts 252°
2026-04-28 19:25 53.67435 -5.53138 24409 ft 480 kts 257°
2026-04-28 19:26 53.66698 -5.58637 24435 ft 469 kts 260°
2026-04-28 19:26 53.66081 -5.64048 24025 ft 470 kts 261°
2026-04-28 19:26 53.65447 -5.69427 23491 ft 466 kts 259°
2026-04-28 19:26 53.64763 -5.74776 22951 ft 460 kts 259°
2026-04-28 19:27 53.64066 -5.80002 22419 ft 455 kts 258°
2026-04-28 19:27 53.63376 -5.85129 21914 ft 450 kts 258°
2026-04-28 19:27 53.62684 -5.90277 21392 ft 447 kts 258°
2026-04-28 19:27 53.62007 -5.95319 20908 ft 443 kts 258°
2026-04-28 19:28 53.61323 -6.00424 20410 ft 441 kts 258°
2026-04-28 19:28 53.60652 -6.05424 19931 ft 438 kts 258°
2026-04-28 19:28 53.59988 -6.10349 19463 ft 436 kts 258°
2026-04-28 19:28 53.59303 -6.15398 18941 ft 435 kts 258°
2026-04-28 19:29 53.58632 -6.20332 18161 ft 439 kts 258°
2026-04-28 19:29 53.58169 -6.23727 17630 ft 440 kts 258°
2026-04-28 19:29 53.57752 -6.30443 16570 ft 436 kts 279°
2026-04-28 19:29 53.58561 -6.35322 15841 ft 426 kts 298°
2026-04-28 19:30 53.60120 -6.39500 15103 ft 417 kts 314°
2026-04-28 19:30 53.62177 -6.42852 14393 ft 407 kts 329°
2026-04-28 19:30 53.64319 -6.45054 13935 ft 397 kts 332°
2026-04-28 19:30 53.66323 -6.48207 13364 ft 403 kts 307°
2026-04-28 19:31 53.67623 -6.52365 12888 ft 399 kts 298°
2026-04-28 19:31 53.68858 -6.56528 12382 ft 393 kts 300°
2026-04-28 19:31 53.69782 -6.60844 11845 ft 394 kts 281°
2026-04-28 19:31 53.69881 -6.65414 11380 ft 391 kts 269°
2026-04-28 19:32 53.69786 -6.69995 10878 ft 387 kts 269°
2026-04-28 19:32 53.69641 -6.74493 10387 ft 383 kts 262°
2026-04-28 19:32 53.68836 -6.78532 9879 ft 380 kts 240°
2026-04-28 19:32 53.67445 -6.82301 9377 ft 374 kts 236°
2026-04-28 19:33 53.66052 -6.85922 8866 ft 371 kts 236°
2026-04-28 19:33 53.64537 -6.89434 8324 ft 366 kts 223°
2026-04-28 19:33 53.62478 -6.91841 7820 ft 356 kts 200°
2026-04-28 19:33 53.60122 -6.92560 7324 ft 344 kts 172°
2026-04-28 19:34 53.57912 -6.91336 6852 ft 330 kts 143°
2026-04-28 19:34 53.56416 -6.88593 6352 ft 319 kts 117°
2026-04-28 19:34 53.55450 -6.85269 5966 ft 312 kts 112°
2026-04-28 19:34 53.54734 -6.81879 5702 ft 301 kts 101°
2026-04-28 19:35 53.54534 -6.78473 5472 ft 291 kts 90°
2026-04-28 19:35 53.54525 -6.75207 5516 ft 266 kts 90°
2026-04-28 19:35 53.54392 -6.72238 5492 ft 244 kts 105°
2026-04-28 19:35 53.53526 -6.69933 5506 ft 229 kts 135°
2026-04-28 19:36 53.52178 -6.68690 5507 ft 217 kts 160°
2026-04-28 19:36 53.50725 -6.68858 5505 ft 212 kts 203°
2026-04-28 19:36 53.49759 -6.70551 5442 ft 206 kts 247°
2026-04-28 19:36 53.49566 -6.72914 5241 ft 202 kts 268°
2026-04-28 19:37 53.49493 -6.74485 5055 ft 200 kts 256°
2026-04-28 19:37 53.49162 -6.75713 4920 ft 191 kts 226°
2026-04-28 19:37 53.47689 -6.76558 4594 ft 166 kts 156°
2026-04-28 19:37 53.46853 -6.74765 4284 ft 150 kts 99°
2026-04-28 19:38 53.46618 -6.73032 4021 ft 154 kts 103°
2026-04-28 19:38 53.46428 -6.71890 3853 ft 154 kts 102°
2026-04-28 19:38 53.46184 -6.70142 3607 ft 153 kts 98°
2026-04-28 19:38 53.46043 -6.68455 3526 ft 149 kts 95°
2026-04-28 19:39 53.45895 -6.66103 3510 ft 150 kts 94°
2026-04-28 19:39 53.45826 -6.64926 3499 ft 149 kts 94°
2026-04-28 19:39 53.45725 -6.63211 3489 ft 148 kts 94°
2026-04-28 19:39 53.45625 -6.61500 3493 ft 149 kts 94°
2026-04-28 19:40 53.45524 -6.59764 3491 ft 147 kts 94°
2026-04-28 19:40 53.45425 -6.58072 3493 ft 146 kts 94°
2026-04-28 19:40 53.45326 -6.56370 3496 ft 146 kts 94°
2026-04-28 19:40 53.45226 -6.54644 3352 ft 150 kts 93°
2026-04-28 19:41 53.45126 -6.52917 3155 ft 149 kts 94°
2026-04-28 19:41 53.45026 -6.51201 2954 ft 140 kts 93°
2026-04-28 19:41 53.44936 -6.49628 2784 ft 138 kts 93°
2026-04-28 19:41 53.44847 -6.48086 2602 ft 134 kts 93°
2026-04-28 19:42 53.44758 -6.46520 2428 ft 135 kts 92°
2026-04-28 19:42 53.44669 -6.44960 2234 ft 135 kts 92°
2026-04-28 19:42 53.44579 -6.43386 2067 ft 135 kts 92°
2026-04-28 19:42 53.44493 -6.41812 1890 ft 136 kts 92°
2026-04-28 19:43 53.44384 -6.40219 1678 ft 138 kts 95°
2026-04-28 19:43 53.44274 -6.38625 1472 ft 134 kts 91°
2026-04-28 19:43 53.44205 -6.37052 1311 ft 138 kts 91°
2026-04-28 19:43 53.44129 -6.35419 1084 ft 142 kts 92°
2026-04-28 19:44 53.44019 -6.33771 942 ft 143 kts 92°
2026-04-28 19:44 53.43943 -6.32151 756 ft 139 kts 92°
2026-04-28 19:44 53.43847 -6.30527 563 ft 138 kts 91°
2026-04-28 19:44 53.43761 -6.28906 398 ft 135 kts 92°
2026-04-28 19:45 53.43689 -6.27421 233 ft 109 kts 106°